Time,TemperatureF,DewpointF,PressureIn,WindDirection,WindDirectionDegrees,WindSpeedMPH,WindSpeedGustMPH,Humidity,HourlyPrecipIn,Conditions,Clouds,dailyrainin,SoftwareType,DateUTC
2013-03-29 00:00:00,65.3,24.2,27.43,SE,135,0.4,0.9,21,0.00,,,0.00,WUHU216HW,2013-03-29 07:00:00,
2013-03-29 00:05:00,65.2,24.0,27.43,SE,135,0.0,0.7,21,0.00,,,0.00,WUHU216HW,2013-03-29 07:05:00,
2013-03-29 00:10:00,65.2,24.0,27.43,SE,135,0.0,0.7,21,0.00,,,0.00,WUHU216HW,2013-03-29 07:10:00,
2013-03-29 00:15:00,65.2,24.0,27.43,SE,135,0.0,0.4,21,0.00,,,0.00,WUHU216HW,2013-03-29 07:15:00,
2013-03-29 00:20:00,65.0,24.0,27.43,SE,135,0.0,0.0,21,0.00,,,0.00,WUHU216HW,2013-03-29 07:20:00,
2013-03-29 00:25:00,64.8,23.8,27.43,ENE,68,0.7,0.7,21,0.00,,,0.00,WUHU216HW,2013-03-29 07:25:00,
2013-03-29 00:30:00,64.4,23.5,27.43,ESE,113,0.4,1.1,21,0.00,,,0.00,WUHU216HW,2013-03-29 07:30:00,
2013-03-29 00:35:00,64.4,23.5,27.43,ESE,113,0.0,1.1,21,0.00,,,0.00,WUHU216HW,2013-03-29 07:35:00,
2013-03-29 00:40:00,64.3,24.3,27.43,East,90,0.9,1.1,22,0.00,,,0.00,WUHU216HW,2013-03-29 07:40:00,
2013-03-29 00:45:00,64.1,24.2,27.43,ENE,68,0.7,1.6,22,0.00,,,0.00,WUHU216HW,2013-03-29 07:45:00,
2013-03-29 00:50:00,63.9,24.0,27.43,East,90,0.0,1.6,22,0.00,,,0.00,WUHU216HW,2013-03-29 07:50:00,
2013-03-29 00:55:00,63.9,24.0,27.43,East,90,0.9,1.1,22,0.00,,,0.00,WUHU216HW,2013-03-29 07:55:00,
2013-03-29 01:00:00,63.7,23.9,27.43,ESE,113,0.7,1.1,22,0.00,,,0.00,WUHU216HW,2013-03-29 08:00:00,
2013-03-29 01:05:00,63.7,23.9,27.43,ESE,113,0.9,1.1,22,0.00,,,0.00,WUHU216HW,2013-03-29 08:05:00,
2013-03-29 01:10:00,63.7,24.8,27.43,ENE,68,0.9,1.1,23,0.00,,,0.00,WUHU216HW,2013-03-29 08:10:00,
2013-03-29 01:15:00,64.1,25.2,27.43,ESE,113,0.9,1.8,23,0.00,,,0.00,WUHU216HW,2013-03-29 08:15:00,
2013-03-29 01:20:00,64.1,25.2,27.43,ESE,113,0.2,1.8,23,0.00,,,0.00,WUHU216HW,2013-03-29 08:20:00,
2013-03-29 01:25:00,64.1,25.2,27.43,ESE,113,0.2,1.1,23,0.00,,,0.00,WUHU216HW,2013-03-29 08:25:00,
2013-03-29 01:30:00,64.1,26.2,27.42,East,90,0.4,1.1,24,0.00,,,0.00,WUHU216HW,2013-03-29 08:30:00,
2013-03-29 01:35:00,63.9,26.0,27.42,East,90,1.1,1.6,24,0.00,,,0.00,WUHU216HW,2013-03-29 08:35:00,
2013-03-29 01:40:00,63.7,25.8,27.42,ENE,68,0.9,1.6,24,0.00,,,0.00,WUHU216HW,2013-03-29 08:40:00,
2013-03-29 01:45:00,63.5,25.8,27.43,East,90,0.7,2.2,24,0.00,,,0.00,WUHU216HW,2013-03-29 08:45:00,
2013-03-29 01:50:00,63.4,25.6,27.42,ENE,68,1.8,2.2,24,0.00,,,0.00,WUHU216HW,2013-03-29 08:50:00,
2013-03-29 01:55:00,63.0,25.3,27.42,East,90,0.4,1.8,24,0.00,,,0.00,WUHU216HW,2013-03-29 08:55:00,
2013-03-29 02:00:00,62.6,24.9,27.42,ENE,68,0.0,1.8,24,0.00,,,0.00,WUHU216HW,2013-03-29 09:00:00,
2013-03-29 02:05:00,62.3,24.7,27.42,East,90,0.4,1.3,24,0.00,,,0.00,WUHU216HW,2013-03-29 09:05:00,
2013-03-29 02:10:00,61.9,24.3,27.42,ENE,68,0.9,1.8,24,0.00,,,0.00,WUHU216HW,2013-03-29 09:10:00,
2013-03-29 02:15:00,61.6,24.0,27.42,ESE,113,1.3,2.5,24,0.00,,,0.00,WUHU216HW,2013-03-29 09:15:00,
2013-03-29 02:20:00,61.6,24.0,27.42,East,90,0.7,2.5,24,0.00,,,0.00,WUHU216HW,2013-03-29 09:20:00,
2013-03-29 02:25:00,61.6,24.0,27.42,ESE,113,0.2,1.3,24,0.00,,,0.00,WUHU216HW,2013-03-29 09:25:00,
2013-03-29 02:30:00,61.6,24.0,27.41,ENE,68,0.9,2.5,24,0.00,,,0.00,WUHU216HW,2013-03-29 09:30:00,
2013-03-29 02:35:00,61.6,24.0,27.41,ENE,68,1.1,2.5,24,0.00,,,0.00,WUHU216HW,2013-03-29 09:35:00,
2013-03-29 02:40:00,61.4,23.9,27.41,East,90,0.0,2.2,24,0.00,,,0.00,WUHU216HW,2013-03-29 09:40:00,
2013-03-29 02:45:00,61.2,23.8,27.41,ENE,68,0.4,2.2,24,0.00,,,0.00,WUHU216HW,2013-03-29 09:45:00,
2013-03-29 02:50:00,61.0,23.6,27.41,East,90,0.4,1.8,24,0.00,,,0.00,WUHU216HW,2013-03-29 09:50:00,
2013-03-29 02:55:00,60.8,23.4,27.41,East,90,0.0,1.8,24,0.00,,,0.00,WUHU216HW,2013-03-29 09:55:00,
2013-03-29 03:00:00,60.5,23.1,27.41,ENE,68,0.7,0.9,24,0.00,,,0.00,WUHU216HW,2013-03-29 10:00:00,
2013-03-29 03:05:00,60.3,23.0,27.41,East,90,0.0,0.9,24,0.00,,,0.00,WUHU216HW,2013-03-29 10:05:00,
2013-03-29 03:10:00,60.1,22.9,27.41,ENE,68,0.9,1.3,24,0.00,,,0.00,WUHU216HW,2013-03-29 10:10:00,
2013-03-29 03:15:00,60.1,22.9,27.41,East,90,0.7,1.3,24,0.00,,,0.00,WUHU216HW,2013-03-29 10:15:00,
2013-03-29 03:20:00,60.1,22.9,27.41,ESE,113,1.1,1.3,24,0.00,,,0.00,WUHU216HW,2013-03-29 10:20:00,
2013-03-29 03:25:00,60.1,22.9,27.41,ENE,68,1.1,2.0,24,0.00,,,0.00,WUHU216HW,2013-03-29 10:25:00,
2013-03-29 03:30:00,59.9,22.7,27.41,East,90,0.4,2.0,24,0.00,,,0.00,WUHU216HW,2013-03-29 10:30:00,
2013-03-29 03:35:00,59.8,22.5,27.41,ENE,68,0.2,1.8,24,0.00,,,0.00,WUHU216HW,2013-03-29 10:35:00,
2013-03-29 03:40:00,59.6,22.3,27.41,ESE,113,0.4,0.9,24,0.00,,,0.00,WUHU216HW,2013-03-29 10:40:00,
2013-03-29 03:45:00,59.6,22.3,27.41,ESE,113,0.9,1.1,24,0.00,,,0.00,WUHU216HW,2013-03-29 10:45:00,
2013-03-29 03:50:00,59.6,22.3,27.41,ESE,113,0.4,1.1,24,0.00,,,0.00,WUHU216HW,2013-03-29 10:50:00,
2013-03-29 03:55:00,59.6,22.3,27.41,ESE,113,0.7,0.7,24,0.00,,,0.00,WUHU216HW,2013-03-29 10:55:00,
2013-03-29 04:00:00,59.6,22.3,27.41,East,90,0.4,0.9,24,0.00,,,0.00,WUHU216HW,2013-03-29 11:00:00,
2013-03-29 04:05:00,59.4,22.2,27.41,ENE,68,1.1,1.1,24,0.00,,,0.00,WUHU216HW,2013-03-29 11:05:00,
2013-03-29 04:10:00,59.2,22.1,27.41,ESE,113,0.9,1.8,24,0.00,,,0.00,WUHU216HW,2013-03-29 11:10:00,
2013-03-29 04:15:00,59.0,21.9,27.41,ENE,68,1.3,1.8,24,0.00,,,0.00,WUHU216HW,2013-03-29 11:15:00,
2013-03-29 04:20:00,58.9,22.7,27.41,ENE,68,0.9,1.8,25,0.00,,,0.00,WUHU216HW,2013-03-29 11:20:00,
2013-03-29 04:25:00,58.7,22.6,27.41,East,90,0.9,1.8,25,0.00,,,0.00,WUHU216HW,2013-03-29 11:25:00,
2013-03-29 04:30:00,58.5,22.4,27.41,ESE,113,0.2,1.6,25,0.00,,,0.00,WUHU216HW,2013-03-29 11:30:00,
2013-03-29 04:35:00,58.3,22.2,27.42,East,90,0.7,2.0,25,0.00,,,0.00,WUHU216HW,2013-03-29 11:35:00,
2013-03-29 04:40:00,58.1,24.0,27.42,SE,135,1.1,2.0,27,0.00,,,0.00,WUHU216HW,2013-03-29 11:40:00,
2013-03-29 04:45:00,58.0,23.9,27.42,ESE,113,0.2,2.2,27,0.00,,,0.00,WUHU216HW,2013-03-29 11:45:00,
2013-03-29 04:50:00,57.8,23.7,27.43,East,90,0.7,2.2,27,0.00,,,0.00,WUHU216HW,2013-03-29 11:50:00,
2013-03-29 04:55:00,57.6,23.6,27.42,ESE,113,0.2,1.8,27,0.00,,,0.00,WUHU216HW,2013-03-29 11:55:00,
2013-03-29 05:00:00,57.6,24.5,27.43,ESE,113,0.9,1.8,28,0.00,,,0.00,WUHU216HW,2013-03-29 12:00:00,
2013-03-29 05:05:00,57.2,24.2,27.43,ESE,113,0.4,1.8,28,0.00,,,0.00,WUHU216HW,2013-03-29 12:05:00,
2013-03-29 05:10:00,57.2,25.1,27.43,ESE,113,0.4,1.6,29,0.00,,,0.00,WUHU216HW,2013-03-29 12:10:00,
2013-03-29 05:15:00,57.1,25.0,27.43,ENE,68,0.0,1.8,29,0.00,,,0.00,WUHU216HW,2013-03-29 12:15:00,
2013-03-29 05:20:00,56.9,24.9,27.43,ESE,113,0.4,1.8,29,0.00,,,0.00,WUHU216HW,2013-03-29 12:20:00,
2013-03-29 05:25:00,56.7,24.7,27.43,ESE,113,0.7,1.3,29,0.00,,,0.00,WUHU216HW,2013-03-29 12:25:00,
2013-03-29 05:30:00,56.5,24.5,27.43,ESE,113,0.4,1.3,29,0.00,,,0.00,WUHU216HW,2013-03-29 12:30:00,
2013-03-29 05:35:00,56.5,25.5,27.43,ENE,68,0.7,2.2,30,0.00,,,0.00,WUHU216HW,2013-03-29 12:35:00,
2013-03-29 05:40:00,56.5,26.2,27.43,East,90,1.6,2.5,31,0.00,,,0.00,WUHU216HW,2013-03-29 12:40:00,
2013-03-29 05:45:00,56.5,26.2,27.43,SE,135,0.9,2.5,31,0.00,,,0.00,WUHU216HW,2013-03-29 12:45:00,
2013-03-29 05:50:00,56.5,25.5,27.43,East,90,0.7,2.9,30,0.00,,,0.00,WUHU216HW,2013-03-29 12:50:00,
2013-03-29 05:55:00,56.5,26.2,27.43,ENE,68,0.2,2.9,31,0.00,,,0.00,WUHU216HW,2013-03-29 12:55:00,
2013-03-29 06:00:00,56.7,25.7,27.43,SE,135,2.5,3.1,30,0.00,,,0.00,WUHU216HW,2013-03-29 13:00:00,
2013-03-29 06:05:00,56.9,26.5,27.43,ESE,113,1.1,3.1,31,0.00,,,0.00,WUHU216HW,2013-03-29 13:05:00,
2013-03-29 06:10:00,57.1,25.9,27.43,East,90,1.3,3.4,30,0.00,,,0.00,WUHU216HW,2013-03-29 13:10:00,
2013-03-29 06:15:00,57.2,26.1,27.43,East,90,1.1,3.4,30,0.00,,,0.00,WUHU216HW,2013-03-29 13:15:00,
2013-03-29 06:20:00,57.2,26.1,27.43,SE,135,1.1,2.7,30,0.00,,,0.00,WUHU216HW,2013-03-29 13:20:00,
2013-03-29 06:25:00,57.6,26.5,27.43,ENE,68,1.1,2.7,30,0.00,,,0.00,WUHU216HW,2013-03-29 13:25:00,
2013-03-29 06:30:00,57.8,26.6,27.43,ENE,68,2.2,3.1,30,0.00,,,0.00,WUHU216HW,2013-03-29 13:30:00,
2013-03-29 06:35:00,57.8,26.6,27.43,ESE,113,2.0,4.0,30,0.00,,,0.00,WUHU216HW,2013-03-29 13:35:00,
2013-03-29 06:40:00,58.0,25.8,27.44,ESE,113,1.8,4.0,29,0.00,,,0.00,WUHU216HW,2013-03-29 13:40:00,
2013-03-29 06:45:00,58.0,25.8,27.44,ESE,113,1.8,3.1,29,0.00,,,0.00,WUHU216HW,2013-03-29 13:45:00,
2013-03-29 06:50:00,58.0,25.8,27.44,East,90,2.5,3.1,29,0.00,,,0.00,WUHU216HW,2013-03-29 13:50:00,
2013-03-29 06:55:00,58.1,25.9,27.44,NE,45,1.8,3.4,29,0.00,,,0.00,WUHU216HW,2013-03-29 13:55:00,
2013-03-29 07:00:00,58.3,26.1,27.44,ESE,113,0.4,3.4,29,0.00,,,0.00,WUHU216HW,2013-03-29 14:00:00,
2013-03-29 07:05:00,58.5,26.3,27.44,ESE,113,0.7,2.9,29,0.00,,,0.00,WUHU216HW,2013-03-29 14:05:00,
2013-03-29 07:10:00,58.7,26.5,27.45,East,90,1.8,1.8,29,0.00,,,0.00,WUHU216HW,2013-03-29 14:10:00,
2013-03-29 07:15:00,59.2,26.9,27.44,ESE,113,3.4,3.4,29,0.00,,,0.00,WUHU216HW,2013-03-29 14:15:00,
2013-03-29 07:20:00,59.8,27.4,27.45,East,90,1.6,3.4,29,0.00,,,0.00,WUHU216HW,2013-03-29 14:20:00,
2013-03-29 07:25:00,60.5,27.0,27.45,SE,135,1.8,4.3,28,0.00,,,0.00,WUHU216HW,2013-03-29 14:25:00,
2013-03-29 07:30:00,61.2,27.5,27.45,SE,135,1.3,4.3,28,0.00,,,0.00,WUHU216HW,2013-03-29 14:30:00,
2013-03-29 07:35:00,61.4,27.7,27.45,South,180,1.6,3.4,28,0.00,,,0.00,WUHU216HW,2013-03-29 14:35:00,
2013-03-29 07:40:00,61.6,27.9,27.45,East,90,1.3,3.4,28,0.00,,,0.00,WUHU216HW,2013-03-29 14:40:00,
2013-03-29 07:45:00,61.7,28.1,27.45,ENE,68,3.1,3.4,28,0.00,,,0.00,WUHU216HW,2013-03-29 14:45:00,
2013-03-29 07:50:00,61.7,28.1,27.45,East,90,1.6,3.1,28,0.00,,,0.00,WUHU216HW,2013-03-29 14:50:00,
2013-03-29 07:55:00,61.7,29.0,27.45,SE,135,2.5,3.1,29,0.00,,,0.00,WUHU216HW,2013-03-29 14:55:00,
2013-03-29 08:00:00,62.1,29.4,27.45,South,180,1.8,2.5,29,0.00,,,0.00,WUHU216HW,2013-03-29 15:00:00,
2013-03-29 08:05:00,62.3,28.5,27.45,SE,135,2.0,3.1,28,0.00,,,0.00,WUHU216HW,2013-03-29 15:05:00,
2013-03-29 08:10:00,62.6,28.8,27.45,SE,135,1.8,3.1,28,0.00,,,0.00,WUHU216HW,2013-03-29 15:10:00,
2013-03-29 08:15:00,63.2,29.4,27.45,SE,135,2.0,2.7,28,0.00,,,0.00,WUHU216HW,2013-03-29 15:15:00,
2013-03-29 08:20:00,63.7,29.8,27.46,SSE,158,1.1,2.7,28,0.00,,,0.00,WUHU216HW,2013-03-29 15:20:00,
2013-03-29 08:25:00,64.1,29.2,27.46,SSW,203,1.6,3.4,27,0.00,,,0.00,WUHU216HW,2013-03-29 15:25:00,
2013-03-29 08:30:00,64.6,30.6,27.46,ESE,113,1.3,3.4,28,0.00,,,0.00,WUHU216HW,2013-03-29 15:30:00,
2013-03-29 08:35:00,65.2,31.1,27.46,ESE,113,1.1,2.5,28,0.00,,,0.00,WUHU216HW,2013-03-29 15:35:00,
2013-03-29 08:40:00,65.9,31.7,27.46,SE,135,1.3,3.1,28,0.00,,,0.00,WUHU216HW,2013-03-29 15:40:00,
2013-03-29 08:45:00,66.4,30.2,27.46,SE,135,1.8,3.1,26,0.00,,,0.00,WUHU216HW,2013-03-29 15:45:00,
2013-03-29 08:50:00,67.0,30.6,27.46,SE,135,1.1,3.1,26,0.00,,,0.00,WUHU216HW,2013-03-29 15:50:00,
2013-03-29 08:55:00,67.7,31.2,27.46,ESE,113,1.3,3.1,26,0.00,,,0.00,WUHU216HW,2013-03-29 15:55:00,
2013-03-29 09:00:00,68.2,30.7,27.46,SSE,158,2.7,2.7,25,0.00,,,0.00,WUHU216HW,2013-03-29 16:00:00,
2013-03-29 09:05:00,68.8,31.2,27.46,SSW,203,0.9,2.7,25,0.00,,,0.00,WUHU216HW,2013-03-29 16:05:00,
2013-03-29 09:10:00,69.1,31.4,27.46,SE,135,0.9,2.7,25,0.00,,,0.00,WUHU216HW,2013-03-29 16:10:00,
2013-03-29 09:15:00,69.5,31.8,27.46,SE,135,0.4,1.8,25,0.00,,,0.00,WUHU216HW,2013-03-29 16:15:00,
2013-03-29 09:20:00,69.8,31.1,27.46,NNE,23,0.7,2.5,24,0.00,,,0.00,WUHU216HW,2013-03-29 16:20:00,
2013-03-29 09:25:00,70.2,31.3,27.46,ESE,113,0.4,2.5,24,0.00,,,0.00,WUHU216HW,2013-03-29 16:25:00,
2013-03-29 09:30:00,70.4,31.5,27.46,SSE,158,1.1,3.1,24,0.00,,,0.00,WUHU216HW,2013-03-29 16:30:00,
2013-03-29 09:35:00,70.9,32.0,27.46,ENE,68,1.1,3.1,24,0.00,,,0.00,WUHU216HW,2013-03-29 16:35:00,
2013-03-29 09:40:00,71.1,31.1,27.46,WSW,248,1.6,3.1,23,0.00,,,0.00,WUHU216HW,2013-03-29 16:40:00,
2013-03-29 09:45:00,71.5,31.4,27.46,NE,45,0.4,3.1,23,0.00,,,0.00,WUHU216HW,2013-03-29 16:45:00,
2013-03-29 09:50:00,71.6,31.5,27.46,SSE,158,2.5,2.5,23,0.00,,,0.00,WUHU216HW,2013-03-29 16:50:00,
2013-03-29 09:55:00,72.2,32.0,27.46,ENE,68,0.7,2.5,23,0.00,,,0.00,WUHU216HW,2013-03-29 16:55:00,
2013-03-29 10:00:00,72.5,32.3,27.45,SE,135,1.1,2.5,23,0.00,,,0.00,WUHU216HW,2013-03-29 17:00:00,
2013-03-29 10:05:00,73.1,31.8,27.45,SSE,158,0.9,2.5,22,0.00,,,0.00,WUHU216HW,2013-03-29 17:05:00,
2013-03-29 10:10:00,73.3,32.0,27.45,SW,225,0.9,2.0,22,0.00,,,0.00,WUHU216HW,2013-03-29 17:10:00,
2013-03-29 10:15:00,73.6,32.2,27.45,SW,225,1.1,2.5,22,0.00,,,0.00,WUHU216HW,2013-03-29 17:15:00,
2013-03-29 10:20:00,74.2,32.7,27.46,SSE,158,0.4,2.5,22,0.00,,,0.00,WUHU216HW,2013-03-29 17:20:00,
2013-03-29 10:25:00,74.2,32.7,27.46,WSW,248,2.5,2.5,22,0.00,,,0.00,WUHU216HW,2013-03-29 17:25:00,
2013-03-29 10:30:00,74.7,33.1,27.45,NW,315,1.8,2.5,22,0.00,,,0.00,WUHU216HW,2013-03-29 17:30:00,
2013-03-29 10:35:00,75.1,34.5,27.45,South,180,1.8,4.0,23,0.00,,,0.00,WUHU216HW,2013-03-29 17:35:00,
2013-03-29 10:40:00,75.4,33.7,27.45,SE,135,1.1,4.7,22,0.00,,,0.00,WUHU216HW,2013-03-29 17:40:00,
2013-03-29 10:45:00,75.6,33.8,27.45,SSE,158,2.2,4.7,22,0.00,,,0.00,WUHU216HW,2013-03-29 17:45:00,
2013-03-29 10:50:00,76.0,34.1,27.45,East,90,0.4,4.3,22,0.00,,,0.00,WUHU216HW,2013-03-29 17:50:00,
2013-03-29 10:55:00,76.3,33.4,27.45,ENE,68,2.5,4.3,21,0.00,,,0.00,WUHU216HW,2013-03-29 17:55:00,
2013-03-29 11:00:00,77.0,31.3,27.45,ENE,68,3.4,3.8,19,0.00,,,0.00,WUHU216HW,2013-03-29 18:00:00,
2013-03-29 11:05:00,77.4,31.6,27.45,ESE,113,1.8,3.8,19,0.00,,,0.00,WUHU216HW,2013-03-29 18:05:00,
2013-03-29 11:10:00,78.1,30.5,27.45,SSW,203,0.7,3.8,18,0.00,,,0.00,WUHU216HW,2013-03-29 18:10:00,
2013-03-29 11:15:00,78.5,30.8,27.45,SSE,158,2.7,3.6,18,0.00,,,0.00,WUHU216HW,2013-03-29 18:15:00,
2013-03-29 11:20:00,78.5,30.8,27.45,NNW,338,1.8,3.6,18,0.00,,,0.00,WUHU216HW,2013-03-29 18:20:00,
2013-03-29 11:25:00,78.3,30.6,27.45,SSW,203,1.8,3.6,18,0.00,,,0.00,WUHU216HW,2013-03-29 18:25:00,
2013-03-29 11:30:00,78.8,27.7,27.45,South,180,2.0,6.0,16,0.00,,,0.00,WUHU216HW,2013-03-29 18:30:00,
2013-03-29 11:35:00,79.2,28.0,27.44,ESE,113,4.3,6.0,16,0.00,,,0.00,WUHU216HW,2013-03-29 18:35:00,
2013-03-29 11:40:00,79.6,28.3,27.45,West,270,2.7,4.3,16,0.00,,,0.00,WUHU216HW,2013-03-29 18:40:00,
2013-03-29 11:45:00,80.1,28.8,27.44,ESE,113,3.4,4.3,16,0.00,,,0.00,WUHU216HW,2013-03-29 18:45:00,
2013-03-29 11:50:00,81.7,28.5,27.44,ENE,68,2.0,4.7,15,0.00,,,0.00,WUHU216HW,2013-03-29 18:50:00,
2013-03-29 11:55:00,84.4,27.1,27.44,SW,225,2.0,4.7,13,0.00,,,0.00,WUHU216HW,2013-03-29 18:55:00,
2013-03-29 12:00:00,87.8,28.1,27.44,SSE,158,1.8,4.0,12,0.00,,,0.00,WUHU216HW,2013-03-29 19:00:00,
2013-03-29 12:05:00,88.0,26.6,27.44,West,270,2.5,4.5,11,0.00,,,0.00,WUHU216HW,2013-03-29 19:05:00,
2013-03-29 12:10:00,86.0,26.6,27.44,WNW,293,1.8,4.5,12,0.00,,,0.00,WUHU216HW,2013-03-29 19:10:00,
2013-03-29 12:15:00,84.4,27.1,27.43,SE,135,2.5,3.6,13,0.00,,,0.00,WUHU216HW,2013-03-29 19:15:00,
2013-03-29 12:20:00,85.0,27.5,27.43,NW,315,2.0,3.6,13,0.00,,,0.00,WUHU216HW,2013-03-29 19:20:00,
2013-03-29 12:25:00,84.8,25.7,27.43,WNW,293,2.5,3.8,12,0.00,,,0.00,WUHU216HW,2013-03-29 19:25:00,
2013-03-29 12:30:00,84.1,26.8,27.43,SE,135,0.9,4.7,13,0.00,,,0.00,WUHU216HW,2013-03-29 19:30:00,
2013-03-29 12:35:00,84.2,26.9,27.43,SW,225,2.9,4.7,13,0.00,,,0.00,WUHU216HW,2013-03-29 19:35:00,
2013-03-29 12:40:00,84.6,27.2,27.43,ENE,68,1.8,3.4,13,0.00,,,0.00,WUHU216HW,2013-03-29 19:40:00,
2013-03-29 12:45:00,85.0,27.5,27.42,East,90,0.9,3.4,13,0.00,,,0.00,WUHU216HW,2013-03-29 19:45:00,
2013-03-29 12:50:00,85.0,25.7,27.42,SE,135,1.8,5.1,12,0.00,,,0.00,WUHU216HW,2013-03-29 19:50:00,
2013-03-29 12:55:00,84.2,25.2,27.42,WSW,248,2.7,5.4,12,0.00,,,0.00,WUHU216HW,2013-03-29 19:55:00,
2013-03-29 13:00:00,84.4,25.4,27.42,ESE,113,1.6,5.4,12,0.00,,,0.00,WUHU216HW,2013-03-29 20:00:00,
2013-03-29 13:05:00,84.2,26.9,27.41,ENE,68,0.2,4.3,13,0.00,,,0.00,WUHU216HW,2013-03-29 20:05:00,
2013-03-29 13:10:00,85.0,27.5,27.41,West,270,1.3,3.4,13,0.00,,,0.00,WUHU216HW,2013-03-29 20:10:00,
2013-03-29 13:15:00,85.3,27.8,27.41,WNW,293,1.1,6.9,13,0.00,,,0.00,WUHU216HW,2013-03-29 20:15:00,
2013-03-29 13:20:00,85.5,27.9,27.41,WSW,248,1.3,6.9,13,0.00,,,0.00,WUHU216HW,2013-03-29 20:20:00,
2013-03-29 13:25:00,85.1,25.9,27.41,NW,315,1.8,5.4,12,0.00,,,0.00,WUHU216HW,2013-03-29 20:25:00,
2013-03-29 13:30:00,84.6,27.2,27.40,WSW,248,2.7,5.1,13,0.00,,,0.00,WUHU216HW,2013-03-29 20:30:00,
2013-03-29 13:35:00,84.4,27.1,27.40,NW,315,3.1,4.0,13,0.00,,,0.00,WUHU216HW,2013-03-29 20:35:00,
2013-03-29 13:40:00,84.2,26.9,27.40,ESE,113,0.4,6.3,13,0.00,,,0.00,WUHU216HW,2013-03-29 20:40:00,
2013-03-29 13:45:00,85.0,27.5,27.40,WSW,248,1.6,6.3,13,0.00,,,0.00,WUHU216HW,2013-03-29 20:45:00,
2013-03-29 13:50:00,85.3,27.8,27.40,West,270,1.8,7.4,13,0.00,,,0.00,WUHU216HW,2013-03-29 20:50:00,
2013-03-29 13:55:00,85.1,27.6,27.40,North,0,3.8,7.4,13,0.00,,,0.00,WUHU216HW,2013-03-29 20:55:00,
2013-03-29 14:00:00,85.0,27.5,27.39,NW,315,1.6,4.7,13,0.00,,,0.00,WUHU216HW,2013-03-29 21:00:00,
2013-03-29 14:05:00,85.7,28.1,27.39,NW,315,2.5,4.5,13,0.00,,,0.00,WUHU216HW,2013-03-29 21:05:00,
2013-03-29 14:10:00,85.7,28.1,27.39,North,0,4.0,4.7,13,0.00,,,0.00,WUHU216HW,2013-03-29 21:10:00,
2013-03-29 14:15:00,85.3,27.8,27.39,NW,315,6.3,6.3,13,0.00,,,0.00,WUHU216HW,2013-03-29 21:15:00,
2013-03-29 14:20:00,85.0,27.5,27.38,NW,315,4.5,6.3,13,0.00,,,0.00,WUHU216HW,2013-03-29 21:20:00,
2013-03-29 14:25:00,85.9,28.2,27.38,WSW,248,4.0,6.3,13,0.00,,,0.00,WUHU216HW,2013-03-29 21:25:00,
2013-03-29 14:30:00,86.2,28.5,27.38,East,90,2.5,4.9,13,0.00,,,0.00,WUHU216HW,2013-03-29 21:30:00,
2013-03-29 14:35:00,86.2,28.5,27.38,West,270,3.8,4.7,13,0.00,,,0.00,WUHU216HW,2013-03-29 21:35:00,
2013-03-29 14:40:00,85.9,28.2,27.38,West,270,1.1,4.7,13,0.00,,,0.00,WUHU216HW,2013-03-29 21:40:00,
2013-03-29 14:45:00,86.0,28.4,27.38,SSW,203,2.9,5.8,13,0.00,,,0.00,WUHU216HW,2013-03-29 21:45:00,
2013-03-29 14:50:00,85.9,26.5,27.38,South,180,3.4,5.8,12,0.00,,,0.00,WUHU216HW,2013-03-29 21:50:00,
2013-03-29 14:55:00,86.2,26.8,27.38,WSW,248,4.7,5.4,12,0.00,,,0.00,WUHU216HW,2013-03-29 21:55:00,
2013-03-29 15:00:00,86.0,26.6,27.37,West,270,5.1,6.3,12,0.00,,,0.00,WUHU216HW,2013-03-29 22:00:00,
2013-03-29 15:05:00,86.0,26.6,27.38,SE,135,2.5,6.3,12,0.00,,,0.00,WUHU216HW,2013-03-29 22:05:00,
2013-03-29 15:10:00,86.0,24.9,27.37,West,270,4.0,5.6,11,0.00,,,0.00,WUHU216HW,2013-03-29 22:10:00,
2013-03-29 15:15:00,86.4,25.2,27.37,WSW,248,3.4,4.7,11,0.00,,,0.00,WUHU216HW,2013-03-29 22:15:00,
2013-03-29 15:20:00,86.4,23.5,27.37,SW,225,2.2,4.3,10,0.00,,,0.00,WUHU216HW,2013-03-29 22:20:00,
2013-03-29 15:25:00,86.4,23.5,27.37,NW,315,2.2,4.0,10,0.00,,,0.00,WUHU216HW,2013-03-29 22:25:00,
2013-03-29 15:30:00,85.9,23.0,27.37,NW,315,0.9,4.9,10,0.00,,,0.00,WUHU216HW,2013-03-29 22:30:00,
2013-03-29 15:35:00,85.3,22.7,27.37,East,90,3.4,4.9,10,0.00,,,0.00,WUHU216HW,2013-03-29 22:35:00,
2013-03-29 15:40:00,84.8,22.2,27.37,NW,315,2.2,4.7,9,0.00,,,0.00,WUHU216HW,2013-03-29 22:40:00,
2013-03-29 15:45:00,85.0,22.3,27.37,WSW,248,1.1,4.7,8,0.00,,,0.00,WUHU216HW,2013-03-29 22:45:00,
2013-03-29 15:50:00,85.5,22.8,27.37,SW,225,2.0,4.0,8,0.00,,,0.00,WUHU216HW,2013-03-29 22:50:00,
2013-03-29 15:55:00,86.0,23.2,27.36,WNW,293,4.0,4.0,8,0.00,,,0.00,WUHU216HW,2013-03-29 22:55:00,
2013-03-29 16:00:00,85.9,23.0,27.36,SSE,158,1.3,4.7,8,0.00,,,0.00,WUHU216HW,2013-03-29 23:00:00,
2013-03-29 16:05:00,86.0,23.2,27.36,NW,315,2.0,4.7,8,0.00,,,0.00,WUHU216HW,2013-03-29 23:05:00,
2013-03-29 16:10:00,86.4,23.5,27.36,NNE,23,1.6,4.7,8,0.00,,,0.00,WUHU216HW,2013-03-29 23:10:00,
2013-03-29 16:15:00,86.4,23.5,27.36,NNW,338,3.1,4.5,8,0.00,,,0.00,WUHU216HW,2013-03-29 23:15:00,
2013-03-29 16:20:00,86.4,23.5,27.36,West,270,2.2,6.5,8,0.00,,,0.00,WUHU216HW,2013-03-29 23:20:00,
2013-03-29 16:25:00,86.6,23.7,27.36,NNW,338,2.9,6.5,8,0.00,,,0.00,WUHU216HW,2013-03-29 23:25:00,
2013-03-29 16:30:00,86.4,23.5,27.36,NNW,338,3.4,4.7,8,0.00,,,0.00,WUHU216HW,2013-03-29 23:30:00,
2013-03-29 16:35:00,86.4,23.5,27.35,West,270,4.3,6.3,8,0.00,,,0.00,WUHU216HW,2013-03-29 23:35:00,
2013-03-29 16:40:00,86.0,23.2,27.36,WSW,248,2.9,6.3,8,0.00,,,0.00,WUHU216HW,2013-03-29 23:40:00,
2013-03-29 16:45:00,85.9,23.0,27.36,NW,315,1.3,5.4,8,0.00,,,0.00,WUHU216HW,2013-03-29 23:45:00,
2013-03-29 16:50:00,85.7,23.0,27.36,WNW,293,2.5,5.4,8,0.00,,,0.00,WUHU216HW,2013-03-29 23:50:00,
2013-03-29 16:55:00,86.0,23.2,27.36,West,270,2.2,3.4,8,0.00,,,0.00,WUHU216HW,2013-03-29 23:55:00,
2013-03-29 17:00:00,86.2,23.4,27.36,North,0,4.0,5.4,8,0.00,,,0.00,WUHU216HW,2013-03-30 00:00:00,
2013-03-29 17:05:00,85.7,23.0,27.36,NW,315,2.7,5.8,8,0.00,,,0.00,WUHU216HW,2013-03-30 00:05:00,
2013-03-29 17:10:00,85.7,23.0,27.36,SW,225,2.5,5.8,7,0.00,,,0.00,WUHU216HW,2013-03-30 00:10:00,
2013-03-29 17:15:00,85.5,22.8,27.36,WSW,248,2.5,5.4,7,0.00,,,0.00,WUHU216HW,2013-03-30 00:15:00,
2013-03-29 17:20:00,85.3,22.7,27.36,SSE,158,1.8,4.5,7,0.00,,,0.00,WUHU216HW,2013-03-30 00:20:00,
2013-03-29 17:25:00,85.1,22.5,27.36,North,0,1.3,4.5,7,0.00,,,0.00,WUHU216HW,2013-03-30 00:25:00,
2013-03-29 17:30:00,85.0,22.3,27.36,SW,225,2.7,5.1,7,0.00,,,0.00,WUHU216HW,2013-03-30 00:30:00,
2013-03-29 17:35:00,84.8,22.2,27.36,WNW,293,2.0,5.1,7,0.00,,,0.00,WUHU216HW,2013-03-30 00:35:00,
2013-03-29 17:40:00,84.4,22.0,27.36,NNW,338,0.9,4.9,7,0.00,,,0.00,WUHU216HW,2013-03-30 00:40:00,
2013-03-29 17:45:00,84.2,21.8,27.36,NW,315,4.3,4.9,7,0.00,,,0.00,WUHU216HW,2013-03-30 00:45:00,
2013-03-29 17:50:00,83.7,21.4,27.36,SW,225,2.7,6.0,7,0.00,,,0.00,WUHU216HW,2013-03-30 00:50:00,
2013-03-29 17:55:00,83.3,21.2,27.36,West,270,1.3,6.0,7,0.00,,,0.00,WUHU216HW,2013-03-30 00:55:00,
2013-03-29 18:00:00,82.8,20.8,27.37,NW,315,2.7,4.7,8,0.00,,,0.00,WUHU216HW,2013-03-30 01:00:00,
2013-03-29 18:05:00,82.6,20.6,27.37,West,270,6.0,6.0,8,0.00,,,0.00,WUHU216HW,2013-03-30 01:05:00,
2013-03-29 18:10:00,82.3,20.3,27.37,West,270,2.5,6.0,8,0.00,,,0.00,WUHU216HW,2013-03-30 01:10:00,
2013-03-29 18:15:00,81.7,20.0,27.37,WNW,293,4.5,6.0,8,0.00,,,0.00,WUHU216HW,2013-03-30 01:15:00,
2013-03-29 18:20:00,81.0,19.4,27.37,NNE,23,2.9,5.4,9,0.00,,,0.00,WUHU216HW,2013-03-30 01:20:00,
2013-03-29 18:25:00,80.5,18.9,27.37,SSE,158,2.0,5.4,9,0.00,,,0.00,WUHU216HW,2013-03-30 01:25:00,
2013-03-29 18:30:00,80.1,18.6,27.37,NW,315,2.7,5.4,9,0.00,,,0.00,WUHU216HW,2013-03-30 01:30:00,
2013-03-29 18:35:00,79.7,18.4,27.37,SSW,203,4.0,4.9,8,0.00,,,0.00,WUHU216HW,2013-03-30 01:35:00,
2013-03-29 18:40:00,79.4,18.1,27.37,West,270,2.0,4.7,8,0.00,,,0.00,WUHU216HW,2013-03-30 01:40:00,
2013-03-29 18:45:00,78.8,17.6,27.37,NNW,338,3.4,4.0,8,0.00,,,0.00,WUHU216HW,2013-03-30 01:45:00,
2013-03-29 18:50:00,78.5,17.4,27.37,SW,225,0.9,4.0,8,0.00,,,0.00,WUHU216HW,2013-03-30 01:50:00,
2013-03-29 18:55:00,78.1,17.1,27.37,WSW,248,2.5,3.6,9,0.00,,,0.00,WUHU216HW,2013-03-30 01:55:00,
2013-03-29 19:00:00,77.8,16.9,27.37,SSW,203,2.7,3.6,8,0.00,,,0.00,WUHU216HW,2013-03-30 02:00:00,
2013-03-29 19:05:00,77.4,16.7,27.37,NW,315,1.1,3.1,9,0.00,,,0.00,WUHU216HW,2013-03-30 02:05:00,
2013-03-29 19:10:00,77.0,16.4,27.38,North,0,1.1,3.1,10,0.00,,,0.00,WUHU216HW,2013-03-30 02:10:00,
2013-03-29 19:15:00,76.9,16.2,27.38,SSW,203,2.5,2.7,10,0.00,,,0.00,WUHU216HW,2013-03-30 02:15:00,
2013-03-29 19:20:00,76.5,15.9,27.38,WSW,248,1.3,3.1,10,0.00,,,0.00,WUHU216HW,2013-03-30 02:20:00,
2013-03-29 19:25:00,76.3,15.9,27.38,NW,315,1.1,3.1,10,0.00,,,0.00,WUHU216HW,2013-03-30 02:25:00,
2013-03-29 19:30:00,76.0,15.5,27.38,WNW,293,1.6,2.9,10,0.00,,,0.00,WUHU216HW,2013-03-30 02:30:00,
2013-03-29 19:35:00,76.0,15.5,27.38,NW,315,0.7,2.9,10,0.00,,,0.00,WUHU216HW,2013-03-30 02:35:00,
2013-03-29 19:40:00,75.6,15.2,27.38,NNW,338,0.9,2.7,10,0.00,,,0.00,WUHU216HW,2013-03-30 02:40:00,
2013-03-29 19:45:00,75.2,14.9,27.38,WNW,293,1.1,2.2,10,0.00,,,0.00,WUHU216HW,2013-03-30 02:45:00,
2013-03-29 19:50:00,75.1,14.9,27.38,West,270,0.7,2.2,10,0.00,,,0.00,WUHU216HW,2013-03-30 02:50:00,
2013-03-29 19:55:00,74.7,16.2,27.38,NW,315,1.8,1.8,11,0.00,,,0.00,WUHU216HW,2013-03-30 02:55:00,
2013-03-29 20:00:00,74.5,16.1,27.38,NW,315,1.8,1.8,11,0.00,,,0.00,WUHU216HW,2013-03-30 03:00:00,
2013-03-29 20:05:00,74.2,15.9,27.39,West,270,0.4,1.8,11,0.00,,,0.00,WUHU216HW,2013-03-30 03:05:00,
2013-03-29 20:10:00,74.0,15.7,27.39,West,270,0.0,2.0,11,0.00,,,0.00,WUHU216HW,2013-03-30 03:10:00,
2013-03-29 20:15:00,73.8,15.6,27.39,WNW,293,0.4,2.0,11,0.00,,,0.00,WUHU216HW,2013-03-30 03:15:00,
2013-03-29 20:20:00,73.4,16.9,27.39,NW,315,0.4,1.3,12,0.00,,,0.00,WUHU216HW,2013-03-30 03:20:00,
2013-03-29 20:25:00,73.3,16.8,27.39,West,270,1.1,1.1,12,0.00,,,0.00,WUHU216HW,2013-03-30 03:25:00,
2013-03-29 20:30:00,73.1,16.7,27.40,West,270,0.0,1.6,12,0.00,,,0.00,WUHU216HW,2013-03-30 03:30:00,
2013-03-29 20:35:00,72.7,16.4,27.40,NW,315,0.4,1.6,12,0.00,,,0.00,WUHU216HW,2013-03-30 03:35:00,
2013-03-29 20:40:00,72.4,16.1,27.40,WNW,293,0.2,1.3,12,0.00,,,0.00,WUHU216HW,2013-03-30 03:40:00,
2013-03-29 20:45:00,72.0,15.8,27.40,West,270,0.0,0.9,12,0.00,,,0.00,WUHU216HW,2013-03-30 03:45:00,
2013-03-29 20:50:00,71.8,15.7,27.40,West,270,0.0,0.9,12,0.00,,,0.00,WUHU216HW,2013-03-30 03:50:00,
2013-03-29 20:55:00,71.6,15.5,27.40,West,270,0.0,0.4,12,0.00,,,0.00,WUHU216HW,2013-03-30 03:55:00,
2013-03-29 21:00:00,71.3,15.2,27.40,West,270,0.7,0.7,12,0.00,,,0.00,WUHU216HW,2013-03-30 04:00:00,
2013-03-29 21:05:00,71.1,15.0,27.41,West,270,0.0,0.7,12,0.00,,,0.00,WUHU216HW,2013-03-30 04:05:00,
2013-03-29 21:10:00,70.7,14.8,27.41,West,270,0.0,0.7,12,0.00,,,0.00,WUHU216HW,2013-03-30 04:10:00,
2013-03-29 21:15:00,70.4,16.1,27.41,WSW,248,0.0,0.2,13,0.00,,,0.00,WUHU216HW,2013-03-30 04:15:00,
2013-03-29 21:20:00,70.2,15.9,27.41,WSW,248,0.0,0.2,13,0.00,,,0.00,WUHU216HW,2013-03-30 04:20:00,
2013-03-29 21:25:00,70.0,15.9,27.41,SSW,203,0.4,0.7,13,0.00,,,0.00,WUHU216HW,2013-03-30 04:25:00,
2013-03-29 21:30:00,70.0,15.9,27.41,South,180,0.4,1.3,13,0.00,,,0.00,WUHU216HW,2013-03-30 04:30:00,
2013-03-29 21:35:00,69.7,15.6,27.42,SW,225,0.2,1.8,13,0.00,,,0.00,WUHU216HW,2013-03-30 04:35:00,
2013-03-29 21:40:00,69.5,15.4,27.42,South,180,0.4,1.8,13,0.00,,,0.00,WUHU216HW,2013-03-30 04:40:00,
2013-03-29 21:45:00,69.3,15.3,27.42,SSE,158,0.2,1.1,13,0.00,,,0.00,WUHU216HW,2013-03-30 04:45:00,
2013-03-29 21:50:00,69.1,15.1,27.42,SSE,158,0.4,1.1,13,0.00,,,0.00,WUHU216HW,2013-03-30 04:50:00,
2013-03-29 21:55:00,68.9,15.0,27.42,SSE,158,0.0,0.9,13,0.00,,,0.00,WUHU216HW,2013-03-30 04:55:00,
2013-03-29 22:00:00,68.6,14.8,27.42,ESE,113,0.7,1.3,13,0.00,,,0.00,WUHU216HW,2013-03-30 05:00:00,
2013-03-29 22:05:00,68.0,14.3,27.43,SE,135,0.4,1.3,13,0.00,,,0.00,WUHU216HW,2013-03-30 05:05:00,
2013-03-29 22:10:00,67.9,14.2,27.43,SE,135,0.4,1.1,13,0.00,,,0.00,WUHU216HW,2013-03-30 05:10:00,
2013-03-29 22:15:00,67.7,14.0,27.43,SE,135,0.4,1.1,13,0.00,,,0.00,WUHU216HW,2013-03-30 05:15:00,
2013-03-29 22:20:00,67.5,13.9,27.43,SE,135,0.4,1.1,13,0.00,,,0.00,WUHU216HW,2013-03-30 05:20:00,
2013-03-29 22:25:00,67.3,13.8,27.43,SE,135,0.9,1.8,13,0.00,,,0.00,WUHU216HW,2013-03-30 05:25:00,
2013-03-29 22:30:00,67.3,13.8,27.43,SE,135,1.3,2.2,13,0.00,,,0.00,WUHU216HW,2013-03-30 05:30:00,
2013-03-29 22:35:00,67.3,13.8,27.43,SE,135,0.7,2.2,13,0.00,,,0.00,WUHU216HW,2013-03-30 05:35:00,
2013-03-29 22:40:00,67.1,15.2,27.43,ESE,113,1.1,1.3,14,0.00,,,0.00,WUHU216HW,2013-03-30 05:40:00,
2013-03-29 22:45:00,66.8,16.5,27.43,ESE,113,0.2,1.1,15,0.00,,,0.00,WUHU216HW,2013-03-30 05:45:00,
2013-03-29 22:50:00,66.6,16.3,27.43,ESE,113,0.4,1.1,15,0.00,,,0.00,WUHU216HW,2013-03-30 05:50:00,
2013-03-29 22:55:00,66.2,16.0,27.43,ESE,113,0.4,1.1,15,0.00,,,0.00,WUHU216HW,2013-03-30 05:55:00,
2013-03-29 23:00:00,65.9,15.8,27.43,ESE,113,0.4,1.1,15,0.00,,,0.00,WUHU216HW,2013-03-30 06:00:00,
2013-03-29 23:05:00,65.9,15.8,27.43,ESE,113,0.2,0.9,15,0.00,,,0.00,WUHU216HW,2013-03-30 06:05:00,
2013-03-29 23:10:00,65.7,15.6,27.43,SE,135,0.4,0.9,15,0.00,,,0.00,WUHU216HW,2013-03-30 06:10:00,
2013-03-29 23:15:00,65.5,15.5,27.43,SE,135,0.0,0.4,15,0.00,,,0.00,WUHU216HW,2013-03-30 06:15:00,
2013-03-29 23:20:00,65.5,15.5,27.43,SE,135,1.1,1.3,15,0.00,,,0.00,WUHU216HW,2013-03-30 06:20:00,
2013-03-29 23:25:00,65.5,15.5,27.43,ESE,113,0.4,1.3,15,0.00,,,0.00,WUHU216HW,2013-03-30 06:25:00,
2013-03-29 23:30:00,65.5,15.5,27.43,SE,135,0.0,1.1,15,0.00,,,0.00,WUHU216HW,2013-03-30 06:30:00,
2013-03-29 23:35:00,65.5,15.5,27.43,SE,135,0.4,1.1,15,0.00,,,0.00,WUHU216HW,2013-03-30 06:35:00,
2013-03-29 23:40:00,65.5,15.5,27.43,SE,135,0.9,1.1,15,0.00,,,0.00,WUHU216HW,2013-03-30 06:40:00,
2013-03-29 23:45:00,65.3,15.3,27.43,ESE,113,1.1,1.1,15,0.00,,,0.00,WUHU216HW,2013-03-30 06:45:00,
2013-03-29 23:50:00,65.3,15.3,27.43,SE,135,1.1,1.1,15,0.00,,,0.00,WUHU216HW,2013-03-30 06:50:00,
2013-03-29 23:55:00,65.3,15.3,27.43,ESE,113,1.1,1.1,15,0.00,,,0.00,WUHU216HW,2013-03-30 06:55:00,